Regional Weather Roundup
Issued by NWS

Home | Current Version | Previous Version | Text Only | Print | Product List | Glossary On
Versions: 1 2 3 4 5 6 7 8 9 10 11 12 13 14 15 16 17 18 19 20 21 22 23 24 25 26 27 28 29 30 31 32 33 34 35 36 37 38 39 40 41 42 43 44 45 46 47 48 49 50
000
ASUS43 KDMX 301003
RWRIA

WEATHER ROUNDUP FOR IOWA
NATIONAL WEATHER SERVICE DES MOINES IA
500 AM CDT TUE AUG 30 2016

NOTE: "FAIR" INDICATES FEW OR NO CLOUDS BELOW 12,000 FEET WITH NO
SIGNIFICANT WEATHER AND/OR OBSTRUCTIONS TO VISIBILITY.

* - THESE STATIONS ARE NOT NWS STATIONS...THUS NOT UNDER NWS
QUALITY CONTROL.  THEY ALSO DO NOT REPORT WEATHER SUCH
AS PRECIPITATION OR FOG.

IAZ001>003-012>014-020>022-031>034-043>046-301100-
   NORTHWEST IOWA

CITY           SKY/WX    TMP DP  RH WIND       PRES   REMARKS
CARROLL *      CLOUDY    66  66 100 CALM      30.18R
CHEROKEE *     CLOUDY    66  66 100 CALM      30.19R
DENISON *      CLOUDY    66  66 100 CALM      30.16R
LE MARS *      CLOUDY    66  66 100 CALM      30.19R
ORANGE CITY *  MOCLDY    68  66  94 NE6       30.20R
SHELDON *      MOCLDY    66  66 100 CALM      30.19R
SIOUX CITY     CLOUDY    68  66  93 E3        30.18R
SPENCER        PTCLDY    64  62  93 CALM      30.19S
STORM LAKE *   MOCLDY    66  66 100 CALM      30.19R FOG
$$

IAZ055>058-069>071-079>083-090>094-301100-
   SOUTHWEST IOWA

CITY           SKY/WX    TMP DP  RH WIND       PRES   REMARKS
ATLANTIC *     MOCLDY    68  68 100 N3        30.18S
AUDUBON *      CLOUDY    68  64  88 CALM      30.20R
CLARINDA *       N/A     70  70 100 MISG      30.19R
COUNCIL BLFS * MOCLDY    68  68 100 NE6       30.19R FOG
CRESTON *      PTCLDY    68  68 100 NE5       30.20R
HARLAN  *      CLOUDY    68  68 100 CALM      30.22S FOG
LAMONI         CLOUDY    69  69 100 CALM      30.18S
RED OAK *      HVY RAIN  70  68  94 NE8       30.18R
SHENANDOAH *   LGT RAIN  70 -38   1 NE7       30.17R
$$

IAZ047>049-059>061-072>074-084-301100-
   CENTRAL IOWA

CITY           SKY/WX    TMP DP  RH WIND       PRES   REMARKS
AMES           CLOUDY    68  68 100 CALM      30.17S FOG
ANKENY *         N/A    N/A N/A N/A MISG        N/A
BOONE *        CLOUDY    68  68 100 CALM      30.17R
CHARITON *       N/A     70  70 100 MISG      30.17S
DES MOINES     CLOUDY    72  70  93 E3        30.16F
GRINNELL*      MOCLDY    67  65  96 CALM      30.17F
KNOXVILLE *    FOG       70  68  94 CALM      30.15F VSB 1
MARSHALLTOWN   CLOUDY    67  67 100 CALM      30.16F
NEWTON *       MOCLDY    68  68 100 CALM      30.16S
PELLA *        PTCLDY    68  67  96 CALM      30.17F FOG
PERRY *          N/A     68  68 100 W3        30.18R FOG
$$

IAZ004>006-015-016-023>025-035-036-301100-
   NORTH CENTRAL IOWA

CITY           SKY/WX    TMP DP  RH WIND       PRES   REMARKS
ALGONA *       MOCLDY    66  66 100 CALM      30.19R
ESTHERVILLE    CLOUDY    68  67  96 NE15G24   30.21R
FORT DODGE *   CLOUDY    68  66  94 N3        30.17F
MASON CITY     MOCLDY    67  66  97 N8        30.21R
FOREST CITY *    N/A    N/A N/A N/A MISG        N/A
WEBSTER CITY * CLOUDY    68  68 100 CALM      30.15S
IOWA FALLS *     N/A     67  66  96 CALM      30.18F FOG
$$

IAZ007>011-017>019-026>030-037>042-050>054-066-301100-
   NORTHEAST IOWA

CITY           SKY/WX    TMP DP  RH WIND       PRES   REMARKS
CEDAR RAPIDS   CLOUDY    70  70 100 CALM      30.15F FOG
CHARLES CITY * CLOUDY    68  68 100 CALM      30.18S FOG
CLINTON *      CLOUDY    69  69 100 E5        30.17R FOG
DECORAH *      FOG       68  68 100 NW6       30.17R VSB 1/2
DUBUQUE        MOCLDY    69  68  96 CALM      30.17S FOG
MONTICELLO *   MOCLDY    70  68  94 CALM      30.16S
OELWEIN *      CLOUDY    64  64 100 CALM      30.18S FOG
WATERLOO       CLOUDY    66  64  93 CALM      30.15F
$$

IAZ064-065-067-068-078-301100-
   EAST CENTRAL IOWA

CITY           SKY/WX    TMP DP  RH WIND       PRES   REMARKS
DAVENPORT      MOCLDY    70  68  93 E6        30.16S
IOWA CITY      LGT RAIN  71  70  96 CALM      30.17S
MT. PLEASANT * CLOUDY    73  73 100 NE5       30.15F FOG
QUAD CITIES    PTCLDY    71  69  93 E8        30.14S
$$

IAZ062-063-075>077-085>089-095>099-301100-
   SOUTHEAST IOWA

CITY           SKY/WX    TMP DP  RH WIND       PRES   REMARKS
BURLINGTON     MOCLDY    71  71 100 NW6       30.15R FOG
FAIRFIELD *    CLOUDY    70  68  94 CALM      30.15S
FORT MADISON * PTCLDY    70  70 100 NW6       30.16R FOG
KEOKUK *       PTCLDY    70  70 100 NW6       30.14S
OSKALOOSA *      N/A     67  66  98 CALM      30.16F FOG
CENTERVILLE *  LGT RAIN  70  68  94 CALM      30.18S
OTTUMWA        FOG       67  66  97 CALM      30.15F VSB 1/2
WASHINGTON *   CLOUDY    70  70 100 N5        30.16F
$$

ABBREVIATIONS USED IN REMARKS
   TC - TEMPERATURES IN CELSIUS
  WCI - WIND CHILL INDEX
   HX - HEAT INDEX
  VSB - VISIBILITY
$$





USA.gov is the U.S. government's official web portal to all federal, state and local government web resources and services.